| time (UTC) | temp F | wind direction | speed knots | gust knots | rain 1hr in | rain 24hr in | rain mn in | humidity % | barometer mb |
| 20260906150056 | 70 | 174 | 4.3 | 8.7 | 0.00 | 0.00 | 0.00 | 85 | 1018.1 |
| 20260906144559 | 69 | 161 | 2.6 | 9.6 | 0.00 | 0.00 | 0.00 | 83 | 1018.2 |
| 20260906143108 | 69 | 193 | 1.7 | 5.2 | 0.00 | 0.00 | 0.00 | 82 | 1018.0 |
| 20260906141554 | 68 | 107 | 1.7 | 6.1 | 0.00 | 0.00 | 0.00 | 81 | 1017.8 |
| 20260906140050 | 68 | 167 | 1.7 | 6.1 | 0.00 | 0.00 | 0.00 | 80 | 1017.8 |
| 20260906134553 | 67 | 101 | 0.9 | 6.1 | 0.00 | 0.00 | 0.00 | 80 | 1017.8 |
| 20260906133053 | 67 | 140 | 0.0 | 5.2 | 0.00 | 0.00 | 0.00 | 79 | 1017.8 |
| 20260906131553 | 67 | 115 | 0.0 | 6.1 | 0.00 | 0.00 | 0.00 | 79 | 1017.5 |
| 20260906130046 | 67 | 101 | 0.9 | 5.2 | 0.00 | 0.00 | 0.00 | 79 | 1017.5 |
| 20260906124542 | 67 | 186 | 3.5 | 8.7 | 0.00 | 0.00 | 0.00 | 79 | 1017.5 |
| 20260906123041 | 67 | 165 | 1.7 | 4.3 | 0.00 | 0.00 | 0.00 | 79 | 1017.5 |
| 20260906121544 | 67 | 157 | 0.9 | 5.2 | 0.00 | 0.00 | 0.00 | 79 | 1017.4 |
| 20260906120040 | 67 | 67 | 0.9 | 5.2 | 0.00 | 0.00 | 0.00 | 79 | 1017.1 |
| 20260906114537 | 67 | 152 | 0.0 | 4.3 | 0.00 | 0.00 | 0.00 | 79 | 1017.1 |
| 20260906113044 | 67 | 110 | 0.0 | 4.3 | 0.00 | 0.00 | 0.00 | 79 | 1017.1 |
| 20260906111536 | 67 | 101 | 0.9 | 7.0 | 0.00 | 0.00 | 0.00 | 80 | 1016.8 |
| 20260906110031 | 67 | 108 | 1.7 | 5.2 | 0.00 | 0.00 | 0.00 | 80 | 1016.6 |
| 20260906104529 | 67 | 74 | 0.9 | 5.2 | 0.00 | 0.00 | 0.00 | 80 | 1016.5 |
| 20260906103027 | 67 | 88 | 0.9 | 4.3 | 0.00 | 0.00 | 0.00 | 81 | 1016.3 |
| 20260906101527 | 67 | 118 | 0.9 | 3.5 | 0.00 | 0.00 | 0.00 | 81 | 1016.3 |
| 20260906100026 | 67 | 131 | 0.0 | 4.3 | 0.00 | 0.00 | 0.00 | 81 | 1016.2 |
| 20260906094532 | 67 | 138 | 0.0 | 1.7 | 0.00 | 0.00 | 0.00 | 81 | 1015.8 |
| 20260906093023 | 68 | 104 | 0.9 | 7.0 | 0.00 | 0.00 | 0.00 | 81 | 1015.8 |
| 20260906091528 | 68 | 130 | 0.9 | 5.2 | 0.00 | 0.00 | 0.00 | 81 | 1015.7 |
| 20260906090022 | 68 | 100 | 0.9 | 3.5 | 0.00 | 0.00 | 0.00 | 81 | 1015.7 |
| 20260906084525 | 68 | 122 | 0.0 | 3.5 | 0.00 | 0.00 | 0.00 | 81 | 1015.7 |
| 20260906083024 | 68 | 123 | 0.0 | 2.6 | 0.00 | 0.00 | 0.00 | 81 | 1015.7 |
| 20260906081531 | 68 | 104 | 0.0 | 6.1 | 0.00 | 0.00 | 0.00 | 81 | 1015.9 |
| 20260906080016 | 68 | 115 | 0.0 | 2.6 | 0.00 | 0.00 | 0.00 | 81 | 1015.9 |
| 20260906074515 | 68 | 100 | 0.9 | 2.6 | 0.00 | 0.00 | 0.00 | 82 | 1016.1 |
| 20260906073013 | 69 | 110 | 0.0 | 3.5 | 0.00 | 0.00 | 0.00 | 83 | 1016.1 |
| 20260906071511 | 69 | 105 | 0.9 | 3.5 | 0.00 | 0.00 | 0.00 | 83 | 1016.0 |
| 20260906070010 | 69 | 137 | 0.0 | 3.5 | 0.00 | 0.00 | 0.00 | 83 | 1016.0 |
| 20260906064508 | 69 | 107 | 0.9 | 4.3 | 0.00 | 0.00 | 0.00 | 83 | 1016.1 |
| 20260906063008 | 69 | 98 | 0.9 | 3.5 | 0.00 | 0.00 | 0.00 | 84 | 1016.3 |
| 20260906061507 | 69 | 101 | 0.0 | 1.7 | 0.00 | 0.00 | 0.00 | 84 | 1016.2 |
| 20260906060008 | 69 | 109 | 0.9 | 2.6 | 0.00 | 0.00 | 0.00 | 83 | 1016.2 |
| 20260906054505 | 69 | 119 | 0.0 | 2.6 | 0.00 | 0.00 | 0.00 | 83 | 1016.3 |
| 20260906053005 | 69 | 150 | 0.0 | 0.9 | 0.00 | 0.00 | 0.00 | 83 | 1016.2 |
| 20260906051503 | 70 | 144 | 0.0 | 0.0 | 0.00 | 0.00 | 0.00 | 84 | 1016.1 |
| 20260906050128 | 70 | 145 | 0.0 | 1.7 | 0.00 | 0.00 | 0.00 | 83 | 1016.3 |
| 20260906044559 | 70 | 145 | 0.0 | 1.7 | 0.00 | 0.00 | 0.00 | 83 | 1016.4 |
| 20260906043108 | 70 | 156 | 0.0 | 1.7 | 0.00 | 0.00 | 0.00 | 83 | 1016.5 |
| 20260906041558 | 70 | 175 | 0.0 | 0.0 | 0.00 | 0.00 | 0.00 | 84 | 1016.5 |
| 20260906040059 | 70 | 175 | 0.0 | 0.0 | 0.00 | 0.00 | 0.00 | 84 | 1016.5 |
| 20260906034556 | 70 | 175 | 0.0 | 0.0 | 0.00 | 0.00 | 0.00 | 84 | 1016.4 |
| 20260906033054 | 70 | 175 | 0.0 | 0.9 | 0.00 | 0.00 | 0.00 | 84 | 1016.5 |
| 20260906031555 | 70 | 175 | 0.0 | 2.6 | 0.00 | 0.00 | 0.00 | 84 | 1016.3 |
| 20260906024550 | 71 | 176 | 0.0 | 1.7 | 0.00 | 0.00 | 0.00 | 85 | 1015.9 |
| 20260906023052 | 71 | 176 | 0.0 | 1.7 | 0.00 | 0.00 | 0.00 | 85 | 1015.7 |
| 20260906021606 | 71 | 175 | 0.0 | 0.9 | 0.00 | 0.00 | 0.00 | 85 | 1015.2 |
| 20260906020048 | 72 | 176 | 0.0 | 1.7 | 0.00 | 0.00 | 0.00 | 85 | 1014.9 |
| 20260906014547 | 72 | 176 | 0.9 | 2.6 | 0.00 | 0.00 | 0.00 | 85 | 1014.5 |
| 20260906013047 | 72 | 176 | 0.0 | 3.5 | 0.00 | 0.00 | 0.00 | 84 | 1014.2 |
| 20260906011546 | 73 | 176 | 0.0 | 0.0 | 0.00 | 0.00 | 0.00 | 84 | 1014.1 |
| 20260906010045 | 74 | 176 | 0.0 | 0.0 | 0.00 | 0.00 | 0.00 | 83 | 1014.1 |
| 20260906004545 | 74 | 176 | 0.0 | 0.0 | 0.00 | 0.00 | 0.00 | 81 | 1014.2 |
| 20260906003050 | 75 | 176 | 0.0 | 0.0 | 0.00 | 0.00 | 0.00 | 80 | 1014.0 |
| 20260906001544 | 75 | 177 | 0.9 | 3.5 | 0.00 | 0.00 | 0.00 | 79 | 1013.8 |
| 20260906000043 | 76 | 140 | 0.9 | 2.6 | 0.00 | 0.00 | 0.00 | 78 | 1013.9 |
| 20260905234552 | 76 | 81 | 0.0 | 3.5 | 0.00 | 0.00 | 0.00 | 76 | 1013.5 |
| 20260905233042 | 76 | 91 | 0.9 | 3.5 | 0.00 | 0.00 | 0.00 | 76 | 1013.5 |
| 20260905231541 | 76 | 86 | 1.7 | 6.1 | 0.00 | 0.00 | 0.00 | 76 | 1013.4 |
| 20260905230140 | 77 | 90 | 0.9 | 10.4 | 0.00 | 0.00 | 0.00 | 76 | 1013.4 |
| 20260905224542 | 77 | 80 | 3.5 | 9.6 | 0.00 | 0.00 | 0.00 | 76 | 1013.3 |
| 20260905223041 | 77 | 94 | 3.5 | 11.3 | 0.00 | 0.00 | 0.00 | 76 | 1013.4 |
| 20260905221538 | 77 | 94 | 2.6 | 7.8 | 0.00 | 0.00 | 0.00 | 75 | 1013.1 |
| 20260905220040 | 77 | 103 | 3.5 | 7.0 | 0.00 | 0.00 | 0.00 | 74 | 1013.2 |
| 20260905214538 | 78 | 113 | 3.5 | 8.7 | 0.00 | 0.00 | 0.00 | 73 | 1013.2 |
| 20260905213038 | 79 | 140 | 2.6 | 7.8 | 0.00 | 0.00 | 0.00 | 72 | 1013.6 |
| 20260905211535 | 80 | 65 | 3.5 | 12.2 | 0.00 | 0.00 | 0.00 | 69 | 1013.7 |
| 20260905210043 | 80 | 53 | 0.9 | 7.0 | 0.00 | 0.00 | 0.00 | 71 | 1014.2 |
| 20260905204533 | 79 | 108 | 1.7 | 7.0 | 0.00 | 0.00 | 0.00 | 73 | 1014.3 |
| 20260905203033 | 80 | 93 | 1.7 | 7.0 | 0.00 | 0.00 | 0.00 | 71 | 1014.5 |
| 20260905201538 | 80 | 82 | 0.9 | 7.8 | 0.00 | 0.00 | 0.00 | 71 | 1014.7 |
| 20260905200040 | 81 | 81 | 0.9 | 4.3 | 0.00 | 0.00 | 0.00 | 70 | 1014.9 |
| 20260905194530 | 82 | 360 | 1.7 | 5.2 | 0.00 | 0.00 | 0.00 | 69 | 1015.0 |
| 20260905193031 | 82 | 74 | 1.7 | 7.8 | 0.00 | 0.00 | 0.00 | 70 | 1014.7 |
| 20260905191527 | 82 | 81 | 0.9 | 5.2 | 0.00 | 0.00 | 0.00 | 70 | 1014.6 |
| 20260905190023 | 80 | 119 | 1.7 | 6.1 | 0.00 | 0.00 | 0.00 | 73 | 1014.6 |
| 20260905184527 | 80 | 136 | 1.7 | 7.8 | 0.00 | 0.00 | 0.00 | 72 | 1014.8 |
| 20260905183025 | 80 | 173 | 1.7 | 6.1 | 0.00 | 0.00 | 0.00 | 74 | 1015.1 |
| 20260905181515 | 78 | 27 | 0.0 | 3.5 | 0.00 | 0.00 | 0.00 | 77 | 1015.3 |
| 20260905180015 | 77 | 17 | 0.9 | 7.0 | 0.00 | 0.00 | 0.00 | 79 | 1015.2 |
| 20260905174526 | 77 | 113 | 0.9 | 4.3 | 0.00 | 0.00 | 0.00 | 80 | 1015.4 |
| 20260905173009 | 76 | 119 | 0.9 | 2.6 | 0.00 | 0.00 | 0.00 | 81 | 1015.8 |
| 20260905171508 | 76 | 46 | 0.9 | 3.5 | 0.00 | 0.00 | 0.00 | 82 | 1015.9 |
| 20260905170006 | 76 | 123 | 0.0 | 3.5 | 0.00 | 0.00 | 0.00 | 81 | 1015.6 |
| 20260905164505 | 76 | 106 | 0.0 | 1.7 | 0.00 | 0.00 | 0.00 | 82 | 1015.6 |
| 20260905163004 | 75 | 70 | 2.6 | 7.0 | 0.00 | 0.00 | 0.00 | 82 | 1015.5 |
| 20260905161601 | 75 | 78 | 2.6 | 6.1 | 0.00 | 0.00 | 0.00 | 84 | 1015.3 |
| 20260905160100 | 75 | 63 | 1.7 | 5.2 | 0.00 | 0.00 | 0.00 | 83 | 1015.3 |
| 20260905154556 | 74 | 99 | 2.6 | 5.2 | 0.00 | 0.00 | 0.00 | 84 | 1015.2 |
| 20260905153054 | 74 | 85 | 1.7 | 7.8 | 0.00 | 0.00 | 0.00 | 85 | 1015.2 |
| 20260905151550 | 73 | 61 | 0.9 | 2.6 | 0.00 | 0.00 | 0.00 | 85 | 1015.4 |